N1JFY Weather Reports


Display with metric or nautical units.
time (UTC)temp
F
wind
direction
speed
MPH
gust
MPH
rain 1hr
in
rain 24hr
in
rain mn
in
humidity
%
barometer
mb
20260509064532 40 277 4.0 9.0 0.00 0.00 0.00 71 1010.3
20260509063034 41 280 3.0 7.0 0.00 0.00 0.00 71 1010.2
20260509061538 40 267 4.0 10.0 0.00 0.00 0.00 72 1010.0
20260509060024 38 277 3.0 7.0 0.00 0.00 0.00 78 1010.0
20260509054521 39 254 2.0 6.0 0.00 0.00 0.00 76 1010.0
20260509053030 42 247 3.0 8.0 0.00 0.00 0.00 70 1009.8
20260509051517 42 290 7.0 15.0 0.00 0.00 0.00 69 1009.7
20260509050013 42 263 9.0 15.0 0.00 0.00 0.00 69 1009.5
20260509044511 42 360 8.0 13.0 0.00 0.00 0.00 70 1009.3
20260509043009 42 360 7.0 13.0 0.00 0.00 0.00 69 1009.1
20260509041507 42 290 8.0 12.0 0.00 0.00 0.00 69 1008.9
20260509040002 42 360 6.0 13.0 0.00 0.00 0.00 68 1008.8
20260509034604 42 360 9.0 16.0 0.00 0.00 0.00 68 1008.7
20260509033059 43 360 8.0 17.0 0.00 0.00 0.00 68 1008.5
20260509031602 43 288 8.0 15.0 0.00 0.00 0.00 66 1008.5
20260509030058 43 360 9.0 15.0 0.00 0.00 0.00 66 1008.5
20260509024557 43 250 7.0 11.0 0.00 0.00 0.00 67 1008.4
20260509023057 42 360 5.0 9.0 0.00 0.00 0.00 72 1008.4
20260509021555 41 267 4.0 10.0 0.00 0.00 0.00 74 1008.3
20260509020056 40 281 0.0 0.0 0.00 0.00 0.00 80 1008.2
20260509014552 40 280 0.0 0.0 0.00 0.00 0.00 83 1008.0
20260509013051 40 256 0.0 0.0 0.00 0.00 0.00 82 1007.9
20260509011550 41 257 0.0 0.0 0.00 0.00 0.00 82 1007.8
20260509010048 41 252 0.0 0.0 0.00 0.00 0.00 83 1007.6
20260509004548 41 246 0.0 0.0 0.00 0.00 0.00 84 1007.5
20260509003045 41 246 0.0 0.0 0.00 0.00 0.00 84 1007.3
20260509001544 42 247 0.0 0.0 0.00 0.00 0.00 82 1007.2
20260509000044 42 360 0.0 0.0 0.00 0.00 0.00 80 1007.2
20260508234546 42 35 0.0 0.0 0.00 0.00 0.00 81 1007.0
20260508233040 42 37 0.0 0.0 0.00 0.00 0.00 79 1006.6
20260508231545 43 37 0.0 0.0 0.00 0.00 0.00 79 1006.2
20260508230046 43 37 0.0 0.0 0.00 0.00 0.00 76 1006.2
20260508224536 43 37 0.0 0.0 0.00 0.00 0.00 77 1006.2
20260508223042 44 40 0.0 7.0 0.00 0.00 0.00 78 1006.2
20260508221535 44 360 0.0 1.0 0.00 0.00 0.00 74 1006.0
20260508220038 44 360 0.0 8.0 0.00 0.00 0.00 76 1005.9
20260508214531 43 5 6.0 10.0 0.00 0.00 0.00 76 1005.8
20260508213030 44 323 11.0 21.0 0.00 0.00 0.00 69 1005.8
20260508211530 46 290 17.0 27.0 0.00 0.00 0.00 65 1005.4
20260508210025 49 360 8.0 14.0 0.00 0.00 0.00 55 1005.0
20260508204524 49 360 9.0 17.0 0.00 0.00 0.00 54 1004.8
20260508203025 49 360 10.0 14.0 0.00 0.00 0.00 55 1004.5
20260508201522 48 360 5.0 9.0 0.00 0.00 0.00 60 1004.5
20260508200020 47 328 5.0 18.0 0.00 0.00 0.00 60 1004.6
20260508194521 45 234 5.0 18.0 0.00 0.00 0.00 66 1004.7
20260508193024 45 360 11.0 26.0 0.00 0.00 0.00 67 1004.8
20260508191532 48 360 14.0 20.0 0.00 0.00 0.00 62 1004.6
20260508190026 49 360 11.0 18.0 0.00 0.00 0.00 58 1004.3
20260508184520 48 360 12.0 17.0 0.00 0.00 0.00 62 1004.3
20260508183015 47 342 10.0 19.0 0.00 0.00 0.00 64 1004.3
20260508181514 45 360 14.0 22.0 0.00 0.00 0.00 71 1004.2
20260508180014 44 321 14.0 24.0 0.00 0.00 0.00 73 1004.2
20260508174514 45 285 16.0 24.0 0.00 0.00 0.00 71 1004.1
20260508173013 48 360 14.0 23.0 0.00 0.00 0.00 57 1003.9
20260508171512 49 360 3.0 13.0 0.00 0.00 0.00 48 1003.5
20260508170013 50 360 1.0 12.0 0.00 0.00 0.00 52 1003.4
20260508164513 48 360 0.0 12.0 0.00 0.01 0.00 55 1003.7
20260508163008 49 360 6.0 13.0 0.00 0.01 0.00 58 1003.7
20260508161504 48 244 4.0 10.0 0.00 0.01 0.00 64 1003.7
20260508160008 46 258 2.0 9.0 0.00 0.01 0.00 67 1004.0
20260508154502 44 360 0.0 21.0 0.00 0.01 0.00 70 1004.1
20260508153001 47 360 9.0 16.0 0.00 0.01 0.00 62 1004.0
20260508151602 47 360 10.0 16.0 0.00 0.01 0.00 65 1004.1
20260508150057 45 360 9.0 14.0 0.00 0.01 0.00 69 1004.3
20260508144559 45 360 8.0 14.0 0.00 0.03 0.00 71 1004.3
20260508143104 44 360 9.0 20.0 0.00 0.03 0.00 71 1004.4
20260508141552 44 331 9.0 15.0 0.00 0.03 0.00 73 1004.4
20260508140101 43 337 9.0 16.0 0.00 0.03 0.00 75 1004.4
20260508134549 43 360 10.0 13.0 0.00 0.07 0.00 76 1004.4
20260508133048 42 325 8.0 18.0 0.00 0.07 0.00 79 1004.3
20260508131546 42 288 10.0 17.0 0.00 0.07 0.00 79 1004.1
20260508130044 42 336 9.0 16.0 0.00 0.07 0.00 80 1003.9
20260508124542 41 332 10.0 19.0 0.00 0.11 0.00 80 1004.0
20260508123042 41 360 11.0 18.0 0.00 0.11 0.00 81 1003.8
20260508121543 41 319 10.0 18.0 0.00 0.11 0.00 81 1003.9
20260508120043 41 355 7.0 13.0 0.00 0.11 0.00 82 1003.7
20260508114545 41 321 7.0 15.0 0.00 0.15 0.00 81 1003.6
20260508113041 41 322 8.0 13.0 0.00 0.15 0.00 82 1003.4
20260508111545 40 360 10.0 17.0 0.00 0.15 0.00 82 1003.3
20260508110034 40 290 10.0 14.0 0.00 0.15 0.00 83 1003.2
20260508104536 40 360 11.0 17.0 0.00 0.20 0.00 83 1003.0
20260508103036 39 288 7.0 17.0 0.00 0.20 0.00 83 1002.8
20260508101532 39 360 9.0 14.0 0.00 0.20 0.00 83 1002.6
20260508100032 39 360 9.0 15.0 0.00 0.20 0.00 84 1002.5
20260508094530 38 360 8.0 16.0 0.00 0.26 0.00 84 1002.4
20260508093031 38 360 10.0 16.0 0.00 0.26 0.00 84 1002.2
20260508091532 38 360 10.0 18.0 0.00 0.26 0.00 84 1002.1
20260508090026 38 285 10.0 16.0 0.00 0.26 0.00 83 1002.0
20260508084524 38 360 9.0 15.0 0.00 0.32 0.00 82 1001.9
20260508083022 38 360 8.0 14.0 0.00 0.32 0.00 82 1002.1
20260508081519 38 288 7.0 13.0 0.00 0.32 0.00 81 1002.1
20260508080019 38 272 3.0 12.0 0.00 0.32 0.00 80 1002.2
20260508074518 39 360 5.0 13.0 0.00 0.39 0.00 80 1002.1
20260508073017 39 263 3.0 8.0 0.00 0.39 0.00 79 1002.2
20260508071513 39 290 4.0 8.0 0.00 0.39 0.00 78 1002.2
20260508070012 39 360 3.0 13.0 0.00 0.39 0.00 76 1002.3